#timestamp,LO_Frequency,Hit,StdDev 
1510171215.0,286046993.3,N
1510171215.9,286046993.3,N
1510171235.8,286046993.6,N
1510171255.6,286046994.4,N
1510171275.4,286046994.5,N
1510171295.3,286046990.5,N
1510171315.1,286046989.3,Y
1510171335.8,286046991.9,P
1510171355.7,286046989.7,P
1510171375.5,286046985.4,P
1510171395.3,286046987.7,Y
1510171415.2,286046997.2,P
1510171435.9,286046999.4,N
1510171455.7,286047000.4,N
1510171475.6,286046997.5,N
1510171495.4,286046997.9,N
1510171515.2,286046996.0,N
1510171535.1,286046996.3,N
1510171536.0,286046996.3,N
1510171555.8,286046994.6,N
1510171575.6,286046991.7,Y
1510171595.5,286046998.7,P
1510171615.3,286046996.8,P
1510171635.1,286046997.0,P
1510171655.9,286046996.6,Y
1510171675.7,286047001.2,P
1510171695.5,286046999.3,N
1510171715.4,286046999.4,N
1510171735.2,286046997.4,N
1510171755.0,286046996.9,N
1510171755.9,286046996.9,N
1510171775.8,286047001.0,N
1510171795.6,286047000.3,N
1510171815.4,286047002.3,N
1510171835.2,286047002.5,N
1510171855.1,286047002.5,N
1510171856.0,286047002.5,N
1510171875.8,286047002.6,N
1510171895.6,286047001.8,N
1510171915.5,286047002.3,N
1510171935.3,286047004.4,N
1510171955.1,286046999.8,N
1510171975.9,286047001.2,N
1510171995.7,286046999.3,N
1510172015.5,286047000.5,N
1510172035.4,286047003.9,N
1510172055.2,286047002.9,N
1510172075.0,286047004.0,N
1510172075.9,286047004.0,N
1510172095.7,286047005.9,N
1510172115.6,286047005.2,N
1510172135.4,286047002.4,N
1510172155.2,286046999.9,N
1510172175.1,286047002.8,N
1510172176.0,286047002.8,N
1510172195.8,286047002.5,N
1510172215.6,286046998.6,N
1510172235.5,286046998.7,N
1510172255.3,286047001.8,N
1510172275.1,286047001.9,N
1510172295.9,286047000.5,N
1510172315.7,286046998.6,N
1510172335.5,286047002.5,N
1510172355.4,286047005.4,N
1510172375.2,286047008.5,Y
1510172395.0,286047001.4,P
1510172395.9,286047001.4,P
1510172415.8,286047001.6,P
1510172435.6,286047005.5,Y
1510172455.4,286047002.1,P
1510172475.3,286047004.1,P
1510172495.1,286047003.8,P
1510172496.0,286047003.8,Y
1510172515.8,286046998.6,P
1510172535.7,286046996.8,N
1510172555.5,286047000.9,N
1510172575.3,286047002.4,N
1510172595.2,286046999.8,N
1510172615.9,286047004.3,N
1510172635.7,286047003.5,N
1510172655.6,286047001.2,N
1510172675.4,286046999.2,N
1510172695.2,286046999.3,N
1510172715.0,286046998.3,N
1510172716.0,286046998.3,N
1510172735.8,286046999.9,N
1510172755.6,286047003.8,N
1510172775.4,286047000.7,N
1510172795.3,286046998.9,N
1510172815.1,286047000.8,N
1510172835.8,286046999.9,N
1510172855.7,286047000.9,N
1510172875.5,286047000.8,N
1510172895.3,286047001.5,N
1510172915.2,286046999.8,N
1510172935.9,286047002.8,N
1510172955.7,286047002.3,N
1510172975.6,286047002.3,N
1510172995.4,286047001.0,N
1510173015.2,286046998.6,N
1510173035.1,286046999.4,N
1510173036.0,286046999.4,N
1510173055.8,286047000.9,N
1510173075.6,286046999.2,N
1510173095.5,286046998.0,N
1510173115.3,286046994.7,Y
1510173135.1,286046988.9,P
1510173155.9,286046991.4,N
1510173175.7,286046987.2,N
1510173195.5,286046988.0,N
1510173215.3,286046986.0,N
1510173235.2,286046985.1,Y
1510173255.0,286046991.9,P
1510173255.9,286046991.9,P
1510173275.8,286046991.9,P
1510173295.6,286046993.6,Y
1510173315.4,286047003.1,P
1510173335.3,286047001.7,N
1510173355.1,286047000.3,N
1510173356.0,286047000.3,N
1510173375.8,286046998.6,N
1510173395.6,286046999.6,N
1510173415.5,286046998.9,N
1510173435.3,286046999.1,N
1510173455.1,286046998.1,N
1510173475.9,286046998.5,N
1510173495.7,286047000.5,N
1510173515.5,286047001.7,N
1510173535.4,286047004.2,N
1510173555.2,286047003.9,N
1510173575.0,286047005.6,N
1510173575.9,286047005.6,N
1510173595.8,286047003.0,N
1510173615.6,286047001.5,N
1510173635.4,286047000.4,N
1510173655.3,286047000.1,N
1510173675.1,286047005.6,N
1510173676.0,286047005.6,N
1510173695.8,286047004.0,N
1510173715.6,286047002.9,N
1510173735.5,286047002.8,N
1510173755.3,286047003.7,N
1510173775.1,286047004.0,N
1510173795.9,286047005.0,N
1510173815.7,286047007.1,N
1510173835.5,286047007.2,N
1510173855.4,286047009.0,Y
1510173875.2,286047003.3,P
1510173895.0,286047004.0,P
1510173895.9,286047004.0,P
1510173915.8,286047004.1,Y
1510173935.6,286046996.9,P
1510173955.4,286046998.8,N
1510173975.3,286046998.3,N
1510173995.1,286047001.0,N
1510174015.8,286047002.6,N
1510174035.7,286046998.5,N
1510174055.5,286047000.8,N
1510174075.3,286047000.1,N
1510174095.2,286047000.6,N
1510174115.9,286047001.5,N
1510174135.7,286047003.8,N
1510174155.5,286047004.3,N
1510174175.4,286047003.4,N
1510174195.2,286047005.0,N
1510174215.0,286047007.2,Y
1510174216.0,286047007.2,P
1510174235.8,286047008.8,N
1510174255.6,286047006.7,N
1510174275.4,286047004.5,N
1510174295.3,286047006.3,N
1510174315.1,286047012.3,Y
1510174335.8,286047004.8,P
1510174355.7,286047006.5,P
1510174375.5,286047003.5,P
1510174395.3,286047001.9,N
1510174415.2,286047001.7,N
1510174435.9,286047005.1,N
1510174455.7,286047005.4,Y
1510174475.6,286047002.4,P
1510174495.4,286047000.5,N
1510174515.2,286047000.8,N
1510174535.1,286046999.6,N
1510174536.0,286046999.6,N
1510174555.8,286047001.1,N
1510174575.6,286047000.4,N
1510174595.5,286047007.2,Y
1510174615.3,286047004.9,P
1510174635.1,286047005.7,N
1510174655.9,286047004.9,N
1510174675.7,286047009.2,Y
1510174695.5,286047003.5,P
1510174715.4,286047003.0,P
1510174735.2,286047001.5,P
1510174755.0,286047002.9,N
1510174755.9,286047002.9,Y
1510174775.8,286047002.2,P
1510174795.6,286047000.2,N
